AFR718 LFPG-GOBD

Flight info

Callsign AFR718
Flight time N/A
Altitude 35000
Route AGOPA DCT ARKIP DCT ARMAL DCT ARTAX DCT BEBIX DCT LMG DCT UVELI DCT OSMOB DCT VAVIX DCT NETUK DCT GARVU N10 BANEV DCT BAN N10 CJN L27 NASOS DCT MGA DCT PIMOS DCT GALTO UN869 ADM UR975 SAKLI SAKLI1A
Aircraft B77W/H-SDE1E2E3FGHIJ2J3J4J5M1RWXY/LB1D1

Departure

Time 2026-05-08 09:09
Airport Charles de Gaulle International Airport (LFPG)

Arrival

Time N/A
Airport Blaise Diagne International Airport (GOBD)
Time Latitude Longitude Altitude Speed Heading
2026-05-08 08:31 49.00132 2.58654 365 ft 0 kts 281°
2026-05-08 08:55 49.00131 2.58657 359 ft 2 kts 281°
2026-05-08 08:56 49.00127 2.58695 359 ft 4 kts 281°
2026-05-08 08:56 49.00122 2.58733 359 ft 3 kts 281°
2026-05-08 08:56 49.00121 2.58768 359 ft 4 kts 234°
2026-05-08 08:56 49.00139 2.58778 367 ft 4 kts 165°
2026-05-08 08:57 49.00164 2.58766 363 ft 4 kts 167°
2026-05-08 08:57 49.00174 2.58763 364 ft 0 kts 176°
2026-05-08 08:59 49.00112 2.58768 368 ft 18 kts 181°
2026-05-08 08:59 49.00028 2.58634 363 ft 28 kts 261°
2026-05-08 09:00 49.00013 2.58332 363 ft 32 kts 264°
2026-05-08 09:00 48.99988 2.57917 365 ft 25 kts 266°
2026-05-08 09:00 48.99977 2.57682 362 ft 25 kts 265°
2026-05-08 09:00 48.99962 2.57394 362 ft 30 kts 265°
2026-05-08 09:01 48.99943 2.57049 365 ft 35 kts 265°
2026-05-08 09:01 48.99921 2.56652 361 ft 40 kts 266°
2026-05-08 09:01 48.99903 2.56232 365 ft 40 kts 266°
2026-05-08 09:01 48.99849 2.56022 368 ft 17 kts 201°
2026-05-08 09:02 48.99781 2.55861 366 ft 22 kts 249°
2026-05-08 09:02 48.99746 2.55618 359 ft 19 kts 265°
2026-05-08 09:02 48.99716 2.55470 366 ft 0 kts 213°
2026-05-08 09:04 48.99712 2.55463 368 ft 3 kts 222°
2026-05-08 09:04 48.99706 2.55459 368 ft 0 kts 208°
2026-05-08 09:07 48.99703 2.55457 368 ft 0 kts 203°
2026-05-08 09:07 48.99699 2.55455 366 ft 0 kts 198°
2026-05-08 09:08 48.99682 2.55454 366 ft 5 kts 182°
2026-05-08 09:08 48.99640 2.55485 367 ft 9 kts 140°
2026-05-08 09:08 48.99592 2.55600 361 ft 17 kts 92°
2026-05-08 09:08 48.99615 2.56106 367 ft 98 kts 85°
2026-05-08 09:09 48.99707 2.57686 392 ft 197 kts 87°
2026-05-08 09:09 48.99795 2.60026 1159 ft 242 kts 86°
2026-05-08 09:09 48.99884 2.62730 2537 ft 262 kts 86°
2026-05-08 09:09 49.00046 2.65385 4210 ft 240 kts 84°
2026-05-08 09:10 49.00208 2.67930 5079 ft 246 kts 84°
2026-05-08 09:10 49.00370 2.70592 5711 ft 256 kts 84°
2026-05-08 09:10 49.00523 2.73345 6364 ft 268 kts 84°
2026-05-08 09:10 49.00673 2.76220 7021 ft 277 kts 85°
2026-05-08 09:11 49.00721 2.79172 7706 ft 281 kts 96°
2026-05-08 09:11 49.00422 2.82112 8469 ft 285 kts 101°
2026-05-08 09:11 49.00039 2.85118 9195 ft 293 kts 101°
2026-05-08 09:11 48.99676 2.88186 10006 ft 297 kts 100°
2026-05-08 09:12 48.99329 2.91318 10610 ft 308 kts 100°
2026-05-08 09:12 48.98967 2.94671 10815 ft 334 kts 100°
2026-05-08 09:12 48.98443 2.98212 10965 ft 352 kts 114°
2026-05-08 09:12 48.96993 3.01293 11259 ft 368 kts 141°
2026-05-08 09:13 48.94765 3.03247 11965 ft 374 kts 162°
2026-05-08 09:13 48.92209 3.03942 12873 ft 375 kts 181°
2026-05-08 09:13 48.89644 3.03319 13874 ft 375 kts 200°
2026-05-08 09:13 48.87363 3.01398 14723 ft 378 kts 220°
2026-05-08 09:14 48.85656 2.98346 15558 ft 384 kts 240°
2026-05-08 09:14 48.84723 2.94529 16370 ft 390 kts 257°
2026-05-08 09:14 48.84417 2.90411 17201 ft 396 kts 266°
2026-05-08 09:14 48.84374 2.86203 18025 ft 401 kts 268°
2026-05-08 09:15 48.84378 2.81938 18764 ft 406 kts 268°
2026-05-08 09:15 48.84345 2.77626 19509 ft 410 kts 267°
2026-05-08 09:15 48.84260 2.73287 20265 ft 412 kts 266°
2026-05-08 09:15 48.84143 2.68976 20998 ft 416 kts 266°
2026-05-08 09:16 48.83959 2.64593 21642 ft 416 kts 260°
2026-05-08 09:16 48.83090 2.60386 22113 ft 422 kts 241°
2026-05-08 09:16 48.81440 2.56711 22737 ft 422 kts 233°
2026-05-08 09:16 48.79673 2.53116 23356 ft 427 kts 233°
2026-05-08 09:17 48.77902 2.49399 23982 ft 431 kts 234°
2026-05-08 09:17 48.76185 2.45741 24564 ft 433 kts 234°
2026-05-08 09:17 48.74436 2.42009 25143 ft 435 kts 234°
2026-05-08 09:17 48.72496 2.38480 25576 ft 439 kts 223°
2026-05-08 09:18 48.69965 2.35887 25957 ft 442 kts 210°
2026-05-08 09:18 48.67253 2.33643 26375 ft 447 kts 210°
2026-05-08 09:18 48.64539 2.31311 26871 ft 450 kts 211°
2026-05-08 09:18 48.61829 2.28916 27417 ft 451 kts 212°
2026-05-08 09:19 48.59120 2.26485 27917 ft 454 kts 212°
2026-05-08 09:19 48.56397 2.24030 28361 ft 457 kts 212°
2026-05-08 09:19 48.53682 2.21589 28774 ft 461 kts 212°
2026-05-08 09:19 48.50902 2.19099 29175 ft 464 kts 212°
2026-05-08 09:20 48.48117 2.16632 29575 ft 466 kts 212°
2026-05-08 09:20 48.45305 2.14169 29942 ft 469 kts 212°
2026-05-08 09:20 48.42478 2.11699 30283 ft 471 kts 212°
2026-05-08 09:20 48.39639 2.09219 30595 ft 472 kts 213°
2026-05-08 09:21 48.36788 2.06726 30931 ft 473 kts 213°
2026-05-08 09:21 48.33943 2.04239 31332 ft 472 kts 213°
2026-05-08 09:22 48.14337 2.00821 32920 ft 493 kts 183°
2026-05-08 09:23 48.10912 2.00908 33311 ft 492 kts 183°
2026-05-08 09:23 48.07446 2.00997 33705 ft 491 kts 183°
2026-05-08 09:23 48.04072 2.01086 34049 ft 491 kts 183°
2026-05-08 09:23 48.00657 2.01174 34351 ft 491 kts 183°
2026-05-08 09:24 47.97205 2.01265 34616 ft 490 kts 183°
2026-05-08 09:24 47.93835 2.01354 34894 ft 490 kts 183°
2026-05-08 09:24 47.90368 2.01444 34996 ft 494 kts 183°
2026-05-08 09:25 47.83541 2.01620 35040 ft 492 kts 183°
2026-05-08 09:25 47.76725 2.01801 35003 ft 488 kts 183°
2026-05-08 09:26 47.69925 2.01984 35028 ft 490 kts 183°
2026-05-08 09:26 47.63085 2.02164 35034 ft 492 kts 183°
2026-05-08 09:27 47.56227 2.02343 35009 ft 494 kts 183°
2026-05-08 09:27 47.49348 2.02521 35017 ft 495 kts 183°
2026-05-08 09:28 47.42460 2.02699 35013 ft 495 kts 183°
2026-05-08 09:28 47.35602 2.02875 35001 ft 496 kts 183°
2026-05-08 09:29 47.28666 2.03053 35009 ft 496 kts 183°
2026-05-08 09:29 47.21756 2.03231 35012 ft 496 kts 183°
2026-05-08 09:30 47.14899 2.03407 34990 ft 496 kts 184°
2026-05-08 09:30 47.07996 2.03585 35006 ft 497 kts 184°
2026-05-08 09:31 47.01074 2.03763 35013 ft 497 kts 184°
2026-05-08 09:31 46.94144 2.03940 34985 ft 498 kts 184°
2026-05-08 09:32 46.87223 2.04117 35019 ft 498 kts 183°
2026-05-08 09:32 46.80291 2.04293 35005 ft 498 kts 183°
2026-05-08 09:33 46.73373 2.04472 35002 ft 497 kts 183°
2026-05-08 09:33 46.66459 2.04652 35006 ft 496 kts 183°
2026-05-08 09:34 46.59599 2.04831 34999 ft 496 kts 183°
2026-05-08 09:34 46.52692 2.05012 34983 ft 496 kts 184°
2026-05-08 09:35 46.45798 2.05194 34998 ft 496 kts 184°
2026-05-08 09:35 46.38874 2.05375 35002 ft 497 kts 184°
2026-05-08 09:36 46.33123 2.05524 34987 ft 498 kts 184°
2026-05-08 09:36 46.26183 2.05703 34993 ft 499 kts 184°
2026-05-08 09:37 46.19227 2.05883 34997 ft 499 kts 184°
2026-05-08 09:37 46.12272 2.06063 34980 ft 500 kts 184°
2026-05-08 09:38 46.05341 2.06460 34984 ft 495 kts 184°
2026-05-08 09:38 46.01948 2.05984 34995 ft 488 kts 200°
2026-05-08 09:38 45.98827 2.04191 34998 ft 481 kts 216°
2026-05-08 09:38 45.96201 2.01297 35002 ft 472 kts 231°
2026-05-08 09:39 45.94218 1.97617 34988 ft 463 kts 245°
2026-05-08 09:39 45.92887 1.93540 34986 ft 452 kts 254°
2026-05-08 09:39 45.92080 1.89231 34979 ft 441 kts 265°
2026-05-08 09:39 45.92056 1.84893 35007 ft 433 kts 277°
2026-05-08 09:40 45.92375 1.80572 34966 ft 437 kts 278°
2026-05-08 09:40 45.93015 1.71848 34981 ft 442 kts 277°
2026-05-08 09:41 45.93570 1.63020 34998 ft 445 kts 276°
2026-05-08 09:41 45.94086 1.54157 34975 ft 441 kts 276°
2026-05-08 09:42 45.94507 1.45454 34990 ft 435 kts 270°
2026-05-08 09:42 45.93486 1.36858 35193 ft 440 kts 254°
2026-05-08 09:42 45.92428 1.32694 35132 ft 451 kts 246°
2026-05-08 09:43 45.90992 1.28641 34407 ft 459 kts 244°
2026-05-08 09:43 45.89508 1.24629 35063 ft 447 kts 245°
2026-05-08 09:43 45.88072 1.20723 34994 ft 440 kts 246°
2026-05-08 09:44 45.85250 1.12832 34998 ft 450 kts 246°
2026-05-08 09:44 45.82138 1.05003 34993 ft 459 kts 237°
2026-05-08 09:45 45.77903 0.98117 34999 ft 464 kts 227°
2026-05-08 09:45 45.72969 0.92117 34990 ft 464 kts 224°
2026-05-08 09:46 45.67981 0.86262 34974 ft 463 kts 224°
2026-05-08 09:46 45.63020 0.80403 34984 ft 462 kts 224°
2026-05-08 09:47 45.58088 0.74547 34986 ft 461 kts 224°
2026-05-08 09:47 45.53193 0.68733 34970 ft 459 kts 223°
2026-05-08 09:48 45.48282 0.62917 34972 ft 459 kts 223°
2026-05-08 09:48 45.43374 0.57119 34976 ft 458 kts 223°
2026-05-08 09:49 45.38463 0.51331 34970 ft 458 kts 223°
2026-05-08 09:49 45.33551 0.45555 34969 ft 458 kts 223°
2026-05-08 09:50 45.28636 0.39790 34971 ft 458 kts 223°
2026-05-08 09:50 45.23717 0.34032 34977 ft 458 kts 223°
2026-05-08 09:51 45.18786 0.28275 34948 ft 458 kts 222°
2026-05-08 09:51 45.13863 0.22540 34965 ft 457 kts 222°
2026-05-08 09:52 45.08972 0.16853 34964 ft 457 kts 222°
2026-05-08 09:52 45.04062 0.11159 34963 ft 456 kts 222°
2026-05-08 09:53 44.99149 0.05478 34934 ft 455 kts 222°
2026-05-08 09:53 44.94248 -0.00176 34950 ft 454 kts 222°
2026-05-08 09:54 44.89393 -0.05769 34954 ft 453 kts 221°
2026-05-08 09:54 44.84507 -0.11384 34951 ft 452 kts 221°
2026-05-08 09:55 44.79628 -0.16980 34949 ft 452 kts 221°
2026-05-08 09:55 44.74740 -0.22574 34953 ft 452 kts 221°
2026-05-08 09:56 44.69862 -0.28146 34951 ft 452 kts 221°
2026-05-08 09:56 44.65005 -0.33662 34964 ft 452 kts 220°
2026-05-08 09:57 44.57218 -0.41242 34956 ft 453 kts 216°
2026-05-08 09:57 44.52008 -0.46228 34946 ft 453 kts 216°
2026-05-08 09:58 44.46848 -0.51181 34939 ft 452 kts 216°
2026-05-08 09:58 44.41656 -0.56161 34928 ft 452 kts 216°
2026-05-08 09:59 44.36477 -0.61118 34930 ft 450 kts 216°
2026-05-08 09:59 44.31305 -0.66057 34937 ft 449 kts 216°
2026-05-08 10:00 44.26146 -0.70956 34935 ft 448 kts 215°
2026-05-08 10:00 44.20980 -0.75718 34936 ft 447 kts 215°
2026-05-08 10:01 44.15780 -0.80471 34939 ft 447 kts 214°
2026-05-08 10:01 44.10584 -0.85223 34939 ft 447 kts 214°
2026-05-08 10:02 44.05390 -0.89975 34937 ft 447 kts 214°
2026-05-08 10:02 44.00192 -0.94723 34927 ft 447 kts 214°
2026-05-08 10:03 43.94997 -0.99460 34938 ft 446 kts 214°
2026-05-08 10:03 43.89799 -1.04188 34937 ft 447 kts 214°
2026-05-08 10:04 43.84601 -1.08906 34939 ft 447 kts 214°
2026-05-08 10:04 43.79396 -1.13620 34935 ft 446 kts 214°
2026-05-08 10:05 43.74202 -1.18316 34944 ft 446 kts 213°
2026-05-08 10:05 43.69041 -1.22970 34938 ft 446 kts 213°
2026-05-08 10:06 43.63847 -1.27644 34933 ft 446 kts 213°
2026-05-08 10:06 43.58655 -1.32309 34931 ft 445 kts 213°
2026-05-08 10:07 43.53453 -1.36971 34936 ft 445 kts 213°
2026-05-08 10:07 43.48257 -1.41618 34938 ft 445 kts 213°
2026-05-08 10:08 43.43049 -1.46267 34945 ft 445 kts 213°
2026-05-08 10:08 43.37846 -1.50903 34934 ft 446 kts 213°
2026-05-08 10:09 43.32667 -1.55509 34941 ft 446 kts 212°
2026-05-08 10:09 43.27395 -1.60043 34917 ft 447 kts 207°
2026-05-08 10:10 43.21703 -1.63457 34913 ft 447 kts 198°
2026-05-08 10:10 43.15760 -1.65985 34921 ft 447 kts 197°
2026-05-08 10:11 43.09822 -1.68503 34919 ft 446 kts 198°
2026-05-08 10:11 43.03901 -1.71035 34930 ft 446 kts 198°
2026-05-08 10:12 42.98018 -1.73560 34932 ft 446 kts 197°
2026-05-08 10:12 42.92098 -1.76098 34938 ft 446 kts 197°
2026-05-08 10:13 42.86171 -1.78633 34961 ft 446 kts 197°
2026-05-08 10:13 42.80241 -1.81163 34963 ft 446 kts 197°
2026-05-08 10:14 42.74307 -1.83690 34958 ft 446 kts 197°
2026-05-08 10:14 42.68378 -1.86211 34958 ft 446 kts 197°
2026-05-08 10:15 42.62451 -1.88725 34955 ft 446 kts 197°
2026-05-08 10:15 42.56556 -1.91220 34982 ft 446 kts 197°
2026-05-08 10:16 42.50613 -1.93731 34966 ft 447 kts 197°
2026-05-08 10:16 42.44675 -1.96235 34959 ft 447 kts 197°
2026-05-08 10:17 42.38730 -1.98737 34955 ft 447 kts 197°